Year,Month,Day,Hour,Minute,Value (Times are PST for temperature in C)
2016,06,16,00,00,8.20
2016,06,16,00,01,8.10
2016,06,16,00,02,8.10
2016,06,16,00,03,8.10
2016,06,16,00,04,8.10
2016,06,16,00,05,8.10
2016,06,16,00,06,8.00
2016,06,16,00,07,8.00
2016,06,16,00,08,8.00
2016,06,16,00,09,7.90
2016,06,16,00,10,7.90
2016,06,16,00,11,7.90
2016,06,16,00,12,7.80
2016,06,16,00,13,7.80
2016,06,16,00,14,7.80
2016,06,16,00,15,7.80
2016,06,16,00,16,7.70
2016,06,16,00,17,7.70
2016,06,16,00,18,7.70
2016,06,16,00,19,7.70
2016,06,16,00,20,7.70
2016,06,16,00,21,7.60
2016,06,16,00,22,7.60
2016,06,16,00,23,7.60
2016,06,16,00,24,7.60
2016,06,16,00,25,7.50
2016,06,16,00,26,7.50
2016,06,16,00,27,7.40
2016,06,16,00,28,7.40
2016,06,16,00,29,7.40
2016,06,16,00,30,7.40
2016,06,16,00,31,7.40
2016,06,16,00,32,7.40
2016,06,16,00,33,7.40
2016,06,16,00,34,7.40
2016,06,16,00,35,7.30
2016,06,16,00,36,7.30
2016,06,16,00,37,7.30
2016,06,16,00,38,7.30
2016,06,16,00,39,7.20
2016,06,16,00,40,7.20
2016,06,16,00,41,7.20
2016,06,16,00,42,7.20
2016,06,16,00,43,7.20
2016,06,16,00,44,7.20
2016,06,16,00,45,7.20
2016,06,16,00,46,7.20
2016,06,16,00,47,7.20
2016,06,16,00,48,7.20
2016,06,16,00,49,7.10
2016,06,16,00,50,7.10
2016,06,16,00,51,7.20
2016,06,16,00,52,7.20
2016,06,16,00,53,7.20
2016,06,16,00,54,7.20
2016,06,16,00,55,7.20
2016,06,16,00,56,7.20
2016,06,16,00,57,7.30
2016,06,16,00,58,7.30
2016,06,16,00,59,7.30
2016,06,16,01,00,7.20
2016,06,16,01,01,7.20
2016,06,16,01,02,7.20
2016,06,16,01,03,7.20
2016,06,16,01,04,7.20
2016,06,16,01,05,7.20
2016,06,16,01,06,7.10
2016,06,16,01,07,7.10
2016,06,16,01,08,7.10
2016,06,16,01,09,7.10
2016,06,16,01,10,7.10
2016,06,16,01,11,7.00
2016,06,16,01,12,7.00
2016,06,16,01,13,7.00
2016,06,16,01,14,6.90
2016,06,16,01,15,6.90
2016,06,16,01,16,6.90
2016,06,16,01,17,6.80
2016,06,16,01,18,6.80
2016,06,16,01,19,6.80
2016,06,16,01,20,6.80
2016,06,16,01,21,6.70
2016,06,16,01,22,6.70
2016,06,16,01,23,6.70
2016,06,16,01,24,6.70
2016,06,16,01,25,6.70
2016,06,16,01,26,6.70
2016,06,16,01,27,6.60
2016,06,16,01,28,6.60
2016,06,16,01,29,6.60
2016,06,16,01,30,6.60
2016,06,16,01,31,6.60
2016,06,16,01,32,6.60
2016,06,16,01,33,6.50
2016,06,16,01,34,6.50
2016,06,16,01,35,6.50
2016,06,16,01,36,6.50
2016,06,16,01,37,6.40
2016,06,16,01,38,6.40
2016,06,16,01,39,6.40
2016,06,16,01,40,6.40
2016,06,16,01,41,6.40
2016,06,16,01,42,6.40
2016,06,16,01,43,6.40
2016,06,16,01,44,6.40
2016,06,16,01,45,6.30
2016,06,16,01,46,6.30
2016,06,16,01,47,6.30
2016,06,16,01,48,6.30
2016,06,16,01,49,6.30
2016,06,16,01,50,6.30
2016,06,16,01,51,6.30
2016,06,16,01,52,6.30
2016,06,16,01,53,6.30
2016,06,16,01,54,6.30
2016,06,16,01,55,6.30
2016,06,16,01,56,6.30
2016,06,16,01,57,6.30
2016,06,16,01,58,6.20
2016,06,16,01,59,6.20
2016,06,16,02,00,6.20
2016,06,16,02,01,6.20
2016,06,16,02,02,6.20
2016,06,16,02,03,6.20
2016,06,16,02,04,6.20
2016,06,16,02,05,6.20
2016,06,16,02,06,6.10
2016,06,16,02,07,6.10
2016,06,16,02,08,6.10
2016,06,16,02,09,6.10
2016,06,16,02,10,6.10
2016,06,16,02,11,6.10
2016,06,16,02,12,6.10
2016,06,16,02,13,6.10
2016,06,16,02,14,6.10
2016,06,16,02,15,6.10
2016,06,16,02,16,6.10
2016,06,16,02,17,6.00
2016,06,16,02,18,6.00
2016,06,16,02,19,6.00
2016,06,16,02,20,6.00
2016,06,16,02,21,6.00
2016,06,16,02,22,6.00
2016,06,16,02,23,6.00
2016,06,16,02,24,6.00
2016,06,16,02,25,6.00
2016,06,16,02,26,6.00
2016,06,16,02,27,6.00
2016,06,16,02,28,6.00
2016,06,16,02,29,6.00
2016,06,16,02,30,6.00
2016,06,16,02,31,6.10
2016,06,16,02,32,6.10
2016,06,16,02,33,6.10
2016,06,16,02,34,6.10
2016,06,16,02,35,6.10
2016,06,16,02,36,6.10
2016,06,16,02,37,6.10
2016,06,16,02,38,6.00
2016,06,16,02,39,6.00
2016,06,16,02,40,6.00
2016,06,16,02,41,6.00
2016,06,16,02,42,6.00
2016,06,16,02,43,5.90
2016,06,16,02,44,5.90
2016,06,16,02,45,5.90
2016,06,16,02,46,5.90
2016,06,16,02,47,5.90
2016,06,16,02,48,5.90
2016,06,16,02,49,5.90
2016,06,16,02,50,5.80
2016,06,16,02,51,5.80
2016,06,16,02,52,5.80
2016,06,16,02,53,5.80
2016,06,16,02,54,5.80
2016,06,16,02,55,5.80
2016,06,16,02,56,5.80
2016,06,16,02,57,5.80
2016,06,16,02,58,5.80
2016,06,16,02,59,5.80
2016,06,16,03,00,5.80
2016,06,16,03,01,5.80
2016,06,16,03,02,5.80
2016,06,16,03,03,5.80
2016,06,16,03,04,5.90
2016,06,16,03,05,5.90
2016,06,16,03,06,5.90
2016,06,16,03,07,5.90
2016,06,16,03,08,5.90
2016,06,16,03,09,5.90
2016,06,16,03,10,6.00
2016,06,16,03,11,6.00
2016,06,16,03,12,6.00
2016,06,16,03,13,6.00
2016,06,16,03,14,6.00
2016,06,16,03,15,6.00
2016,06,16,03,16,6.00
2016,06,16,03,17,6.00
2016,06,16,03,18,6.00
2016,06,16,03,19,6.00
2016,06,16,03,20,6.00
2016,06,16,03,21,5.90
2016,06,16,03,22,5.90
2016,06,16,03,23,5.90
2016,06,16,03,24,5.90
2016,06,16,03,25,5.90
2016,06,16,03,26,5.90
2016,06,16,03,27,5.90
2016,06,16,03,28,5.90
2016,06,16,03,29,5.80
2016,06,16,03,30,5.80
2016,06,16,03,31,5.80
2016,06,16,03,32,5.80
2016,06,16,03,33,5.80
2016,06,16,03,34,5.70
2016,06,16,03,35,5.70
2016,06,16,03,36,5.70
2016,06,16,03,37,5.70
2016,06,16,03,38,5.70
2016,06,16,03,39,5.70
2016,06,16,03,40,5.70
2016,06,16,03,41,5.60
2016,06,16,03,42,5.60
2016,06,16,03,43,5.60
2016,06,16,03,44,5.60
2016,06,16,03,45,5.60
2016,06,16,03,46,5.60
2016,06,16,03,47,5.50
2016,06,16,03,48,5.60
2016,06,16,03,49,5.60
2016,06,16,03,50,5.60
2016,06,16,03,51,5.60
2016,06,16,03,52,5.60
2016,06,16,03,53,5.60
2016,06,16,03,54,5.60
2016,06,16,03,55,5.60
2016,06,16,03,56,5.60
2016,06,16,03,57,5.70
2016,06,16,03,58,5.70
2016,06,16,03,59,5.80
2016,06,16,04,00,5.90
2016,06,16,04,01,5.90
2016,06,16,04,02,5.90
2016,06,16,04,03,5.90
2016,06,16,04,04,6.00
2016,06,16,04,05,6.00
2016,06,16,04,06,6.10
2016,06,16,04,07,6.10
2016,06,16,04,08,6.10
2016,06,16,04,09,6.20
2016,06,16,04,10,6.20
2016,06,16,04,11,6.20
2016,06,16,04,12,6.20
2016,06,16,04,13,6.20
2016,06,16,04,14,6.20
2016,06,16,04,15,6.20
2016,06,16,04,16,6.20
2016,06,16,04,17,6.20
2016,06,16,04,18,6.20
2016,06,16,04,19,6.20
2016,06,16,04,20,6.20
2016,06,16,04,21,6.20
2016,06,16,04,22,6.20
2016,06,16,04,23,6.20
2016,06,16,04,24,6.10
2016,06,16,04,25,6.10
2016,06,16,04,26,6.10
2016,06,16,04,27,6.10
2016,06,16,04,28,6.10
2016,06,16,04,29,6.10
2016,06,16,04,30,6.20
2016,06,16,04,31,6.20
2016,06,16,04,32,6.20
2016,06,16,04,33,6.20
2016,06,16,04,34,6.20
2016,06,16,04,35,6.30
2016,06,16,04,36,6.30
2016,06,16,04,37,6.30
2016,06,16,04,38,6.30
2016,06,16,04,39,6.30
2016,06,16,04,40,6.30
2016,06,16,04,41,6.30
2016,06,16,04,42,6.30
2016,06,16,04,43,6.30
2016,06,16,04,44,6.40
2016,06,16,04,45,6.40
2016,06,16,04,46,6.40
2016,06,16,04,47,6.40
2016,06,16,04,48,6.50
2016,06,16,04,49,6.50
2016,06,16,04,50,6.60
2016,06,16,04,51,6.60
2016,06,16,04,52,6.70
2016,06,16,04,53,6.70
2016,06,16,04,54,6.70
2016,06,16,04,55,6.70
2016,06,16,04,56,6.70
2016,06,16,04,57,6.70
2016,06,16,04,58,6.70
2016,06,16,04,59,6.70
2016,06,16,05,00,6.70
2016,06,16,05,01,6.70
2016,06,16,05,02,6.70
2016,06,16,05,03,6.70
2016,06,16,05,04,6.70
2016,06,16,05,05,6.70
2016,06,16,05,06,6.70
2016,06,16,05,07,6.70
2016,06,16,05,08,6.70
2016,06,16,05,09,6.70
2016,06,16,05,10,6.70
2016,06,16,05,11,6.70
2016,06,16,05,12,6.70
2016,06,16,05,13,6.80
2016,06,16,05,14,6.80
2016,06,16,05,15,6.80
2016,06,16,05,16,6.80
2016,06,16,05,17,6.80
2016,06,16,05,18,6.70
2016,06,16,05,19,6.70
2016,06,16,05,20,6.70
2016,06,16,05,21,6.70
2016,06,16,05,22,6.70
2016,06,16,05,23,6.70
2016,06,16,05,24,6.80
2016,06,16,05,25,6.70
2016,06,16,05,26,6.80
2016,06,16,05,27,6.80
2016,06,16,05,28,6.80
2016,06,16,05,29,6.80
2016,06,16,05,30,6.80
2016,06,16,05,31,6.80
2016,06,16,05,32,6.90
2016,06,16,05,33,6.90
2016,06,16,05,34,6.90
2016,06,16,05,35,6.90
2016,06,16,05,36,6.90
2016,06,16,05,37,7.00
2016,06,16,05,38,7.00
2016,06,16,05,39,7.00
2016,06,16,05,40,7.00
2016,06,16,05,41,7.10
2016,06,16,05,42,7.10
2016,06,16,05,43,7.10
2016,06,16,05,44,7.10
2016,06,16,05,45,7.10
2016,06,16,05,46,7.10
2016,06,16,05,47,7.10
2016,06,16,05,48,7.20
2016,06,16,05,49,7.20
2016,06,16,05,50,7.20
2016,06,16,05,51,7.20
2016,06,16,05,52,7.30
2016,06,16,05,53,7.30
2016,06,16,05,54,7.30
2016,06,16,05,55,7.40
2016,06,16,05,56,7.40
2016,06,16,05,57,7.40
2016,06,16,05,58,7.50
2016,06,16,05,59,7.60
2016,06,16,06,00,7.60
2016,06,16,06,01,7.70
2016,06,16,06,02,7.70
2016,06,16,06,03,7.70
2016,06,16,06,04,7.80
2016,06,16,06,05,7.80
2016,06,16,06,06,7.80
2016,06,16,06,07,7.80
2016,06,16,06,08,7.80
2016,06,16,06,09,7.80
2016,06,16,06,10,7.80
2016,06,16,06,11,7.80
2016,06,16,06,12,7.80
2016,06,16,06,13,7.80
2016,06,16,06,14,7.80
2016,06,16,06,15,7.80
2016,06,16,06,16,7.80
2016,06,16,06,17,7.80
2016,06,16,06,18,7.80
2016,06,16,06,19,7.80
2016,06,16,06,20,7.80
2016,06,16,06,21,7.80
2016,06,16,06,22,7.80
2016,06,16,06,23,7.80
2016,06,16,06,24,7.80
2016,06,16,06,25,7.80
2016,06,16,06,26,7.80
2016,06,16,06,27,7.80
2016,06,16,06,28,7.90
2016,06,16,06,29,7.90
2016,06,16,06,30,7.90
2016,06,16,06,31,7.90
2016,06,16,06,32,7.90
2016,06,16,06,33,7.90
2016,06,16,06,34,7.90
2016,06,16,06,35,7.90
2016,06,16,06,36,8.00
2016,06,16,06,37,8.00
2016,06,16,06,38,8.00
2016,06,16,06,39,8.00
2016,06,16,06,40,8.00
2016,06,16,06,41,8.00
2016,06,16,06,42,8.10
2016,06,16,06,43,8.10
2016,06,16,06,44,8.10
2016,06,16,06,45,8.10
2016,06,16,06,46,8.20
2016,06,16,06,47,8.20
2016,06,16,06,48,8.20
2016,06,16,06,49,8.20
2016,06,16,06,50,8.20
2016,06,16,06,51,8.30
2016,06,16,06,52,8.20
2016,06,16,06,53,8.30
2016,06,16,06,54,8.20
2016,06,16,06,55,8.30
2016,06,16,06,56,8.30
2016,06,16,06,57,8.30
2016,06,16,06,58,8.30
2016,06,16,06,59,8.30
2016,06,16,07,00,8.40
2016,06,16,07,01,8.40
2016,06,16,07,02,8.40
2016,06,16,07,03,8.40
2016,06,16,07,04,8.50
2016,06,16,07,05,8.50
2016,06,16,07,06,8.60
2016,06,16,07,07,8.60
2016,06,16,07,08,8.60
2016,06,16,07,09,8.70
2016,06,16,07,10,8.70
2016,06,16,07,11,8.70
2016,06,16,07,12,8.70
2016,06,16,07,13,8.70
2016,06,16,07,14,8.70
2016,06,16,07,15,8.80
2016,06,16,07,16,8.80
2016,06,16,07,17,8.80
2016,06,16,07,18,8.80
2016,06,16,07,19,8.80
2016,06,16,07,20,8.80
2016,06,16,07,21,8.80
2016,06,16,07,22,8.80
2016,06,16,07,23,8.80
2016,06,16,07,24,8.80
2016,06,16,07,25,8.80
2016,06,16,07,26,8.80
2016,06,16,07,27,8.80
2016,06,16,07,28,8.80
2016,06,16,07,29,8.90
2016,06,16,07,30,8.90
2016,06,16,07,31,8.90
2016,06,16,07,32,9.00
2016,06,16,07,33,9.00
2016,06,16,07,34,9.10
2016,06,16,07,35,9.10
2016,06,16,07,36,9.20
2016,06,16,07,37,9.20
2016,06,16,07,38,9.30
2016,06,16,07,39,9.30
2016,06,16,07,40,9.40
2016,06,16,07,41,9.50
2016,06,16,07,42,9.50
2016,06,16,07,43,9.60
2016,06,16,07,44,9.60
2016,06,16,07,45,9.70
2016,06,16,07,46,9.70
2016,06,16,07,47,9.70
2016,06,16,07,48,9.70
2016,06,16,07,49,9.70
2016,06,16,07,50,9.70
2016,06,16,07,51,9.70
2016,06,16,07,52,9.70
2016,06,16,07,53,9.70
2016,06,16,07,54,9.70
2016,06,16,07,55,9.70
2016,06,16,07,56,9.70
2016,06,16,07,57,9.80
2016,06,16,07,58,9.80
2016,06,16,07,59,9.80
2016,06,16,08,00,9.90
2016,06,16,08,01,9.90
2016,06,16,08,02,10.00
2016,06,16,08,03,10.10
2016,06,16,08,04,10.10
2016,06,16,08,05,10.20
2016,06,16,08,06,10.20
2016,06,16,08,07,10.30
2016,06,16,08,08,10.40
2016,06,16,08,09,10.40
2016,06,16,08,10,10.40
2016,06,16,08,11,10.40
2016,06,16,08,12,10.50
2016,06,16,08,13,10.50
2016,06,16,08,14,10.50
2016,06,16,08,15,10.60
2016,06,16,08,16,10.60
2016,06,16,08,17,10.60
2016,06,16,08,18,10.70
2016,06,16,08,19,10.70
2016,06,16,08,20,10.70
2016,06,16,08,21,10.70
2016,06,16,08,22,10.80
2016,06,16,08,23,10.80
2016,06,16,08,24,10.80
2016,06,16,08,25,10.90
2016,06,16,08,26,10.80
2016,06,16,08,27,10.80
2016,06,16,08,28,10.80
2016,06,16,08,29,10.80
2016,06,16,08,30,10.80
2016,06,16,08,31,10.80
2016,06,16,08,32,10.90
2016,06,16,08,33,10.90
2016,06,16,08,34,11.00
2016,06,16,08,35,11.10
2016,06,16,08,36,11.10
2016,06,16,08,37,11.20
2016,06,16,08,38,11.40
2016,06,16,08,39,11.50
2016,06,16,08,40,11.70
2016,06,16,08,41,11.90
2016,06,16,08,42,12.10
2016,06,16,08,43,12.20
2016,06,16,08,44,12.30
2016,06,16,08,45,12.30
2016,06,16,08,46,12.30
2016,06,16,08,47,12.30
2016,06,16,08,48,12.40
2016,06,16,08,49,12.40
2016,06,16,08,50,12.50
2016,06,16,08,51,12.50
2016,06,16,08,52,12.50
2016,06,16,08,53,12.50
2016,06,16,08,54,12.60
2016,06,16,08,55,12.60
2016,06,16,08,56,12.60
2016,06,16,08,57,12.70
2016,06,16,08,58,12.70
2016,06,16,08,59,12.70
2016,06,16,09,00,12.70
2016,06,16,09,01,12.70
2016,06,16,09,02,12.80
2016,06,16,09,03,12.80
2016,06,16,09,04,12.70
2016,06,16,09,05,12.70
2016,06,16,09,06,12.70
2016,06,16,09,07,12.70
2016,06,16,09,08,12.70
2016,06,16,09,09,12.70
2016,06,16,09,10,12.70
2016,06,16,09,11,12.70
2016,06,16,09,12,12.70
2016,06,16,09,13,12.50
2016,06,16,09,14,12.40
2016,06,16,09,15,12.30
2016,06,16,09,16,12.30
2016,06,16,09,17,12.30
2016,06,16,09,18,12.20
2016,06,16,09,19,12.10
2016,06,16,09,20,12.00
2016,06,16,09,21,12.10
2016,06,16,09,22,12.10
2016,06,16,09,23,12.20
2016,06,16,09,24,12.30
2016,06,16,09,25,12.40
2016,06,16,09,26,12.50
2016,06,16,09,27,12.60
2016,06,16,09,28,12.60
2016,06,16,09,29,12.70
2016,06,16,09,30,12.70
2016,06,16,09,31,12.60
2016,06,16,09,32,12.60
2016,06,16,09,33,12.60
2016,06,16,09,34,12.60
2016,06,16,09,35,12.70
2016,06,16,09,36,12.80
2016,06,16,09,37,12.90
2016,06,16,09,38,13.00
2016,06,16,09,39,13.10
2016,06,16,09,40,13.10
2016,06,16,09,41,13.10
2016,06,16,09,42,13.10
2016,06,16,09,43,13.10
2016,06,16,09,44,13.20
2016,06,16,09,45,13.30
2016,06,16,09,46,13.30
2016,06,16,09,47,13.40
2016,06,16,09,48,13.40
2016,06,16,09,49,13.40
2016,06,16,09,50,13.40
2016,06,16,09,51,13.30
2016,06,16,09,52,13.20
2016,06,16,09,53,13.20
2016,06,16,09,54,13.20
2016,06,16,09,55,13.20
2016,06,16,09,56,13.20
2016,06,16,09,57,13.30
2016,06,16,09,58,13.30
2016,06,16,09,59,13.30
2016,06,16,10,00,13.40
2016,06,16,10,01,13.40
2016,06,16,10,02,13.40
2016,06,16,10,03,13.30
2016,06,16,10,04,13.30
2016,06,16,10,05,13.30
2016,06,16,10,06,13.40
2016,06,16,10,07,13.50
2016,06,16,10,08,13.50
2016,06,16,10,09,13.50
2016,06,16,10,10,13.50
2016,06,16,10,11,13.50
2016,06,16,10,12,13.60
2016,06,16,10,13,13.60
2016,06,16,10,14,13.60
2016,06,16,10,15,13.50
2016,06,16,10,16,13.40
2016,06,16,10,17,13.40
2016,06,16,10,18,13.50
2016,06,16,10,19,13.60
2016,06,16,10,20,13.70
2016,06,16,10,21,13.70
2016,06,16,10,22,13.70
2016,06,16,10,23,13.70
2016,06,16,10,24,13.70
2016,06,16,10,25,13.70
2016,06,16,10,26,13.80
2016,06,16,10,27,13.80
2016,06,16,10,28,13.80
2016,06,16,10,29,13.80
2016,06,16,10,30,13.80
2016,06,16,10,31,13.70
2016,06,16,10,32,13.70
2016,06,16,10,33,13.60
2016,06,16,10,34,13.60
2016,06,16,10,35,13.60
2016,06,16,10,36,13.60
2016,06,16,10,37,13.50
2016,06,16,10,38,13.50
2016,06,16,10,39,13.40
2016,06,16,10,40,13.40
2016,06,16,10,41,13.30
2016,06,16,10,42,13.30
2016,06,16,10,43,13.20
2016,06,16,10,44,13.20
2016,06,16,10,45,13.20
2016,06,16,10,46,13.20
2016,06,16,10,47,13.20
2016,06,16,10,48,13.20
2016,06,16,10,49,13.20
2016,06,16,10,50,13.30
2016,06,16,10,51,13.30
2016,06,16,10,52,13.30
2016,06,16,10,53,13.30
2016,06,16,10,54,13.30
2016,06,16,10,55,13.30
2016,06,16,10,56,13.30
2016,06,16,10,57,13.30
2016,06,16,10,58,13.30
2016,06,16,10,59,13.20
2016,06,16,11,00,13.20
2016,06,16,11,01,13.20
2016,06,16,11,02,13.20
2016,06,16,11,03,13.20
2016,06,16,11,04,13.30
2016,06,16,11,05,13.30
2016,06,16,11,06,13.30
2016,06,16,11,07,13.30
2016,06,16,11,08,13.30
2016,06,16,11,09,13.40
2016,06,16,11,10,13.40
2016,06,16,11,11,13.40
2016,06,16,11,12,13.50
2016,06,16,11,13,13.60
2016,06,16,11,14,13.60
2016,06,16,11,15,13.70
2016,06,16,11,16,13.80
2016,06,16,11,17,13.80
2016,06,16,11,18,13.80
2016,06,16,11,19,13.90
2016,06,16,11,20,14.00
2016,06,16,11,21,14.20
2016,06,16,11,22,14.30
2016,06,16,11,23,14.50
2016,06,16,11,24,14.70
2016,06,16,11,25,14.80
2016,06,16,11,26,14.90
2016,06,16,11,27,14.90
2016,06,16,11,28,14.90
2016,06,16,11,29,14.90
2016,06,16,11,30,14.90
2016,06,16,11,31,14.80
2016,06,16,11,32,14.80
2016,06,16,11,33,14.90
2016,06,16,11,34,14.90
2016,06,16,11,35,14.90
2016,06,16,11,36,15.00
2016,06,16,11,37,15.00
2016,06,16,11,38,15.00
2016,06,16,11,39,14.90
2016,06,16,11,40,14.80
2016,06,16,11,41,14.70
2016,06,16,11,42,14.60
2016,06,16,11,43,14.70
2016,06,16,11,44,14.70
2016,06,16,11,45,14.70
2016,06,16,11,46,14.70
2016,06,16,11,47,14.70
2016,06,16,11,48,14.70
2016,06,16,11,49,14.70
2016,06,16,11,50,14.70
2016,06,16,11,51,14.70
2016,06,16,11,52,14.70
2016,06,16,11,53,14.70
2016,06,16,11,54,14.80
2016,06,16,11,55,14.90
2016,06,16,11,56,15.00
2016,06,16,11,57,15.10
2016,06,16,11,58,15.20
2016,06,16,11,59,15.20
2016,06,16,12,00,15.30
2016,06,16,12,01,15.40
2016,06,16,12,02,15.40
2016,06,16,12,03,15.50
2016,06,16,12,04,15.60
2016,06,16,12,05,15.70
2016,06,16,12,06,15.80
2016,06,16,12,07,15.70
2016,06,16,12,08,15.80
2016,06,16,12,09,15.90
2016,06,16,12,10,16.10
2016,06,16,12,11,16.20
2016,06,16,12,12,16.20
2016,06,16,12,13,16.30
2016,06,16,12,14,16.30
2016,06,16,12,15,16.30
2016,06,16,12,16,16.20
2016,06,16,12,17,16.20
2016,06,16,12,18,16.10
2016,06,16,12,19,16.10
2016,06,16,12,20,16.10
2016,06,16,12,21,16.20
2016,06,16,12,22,16.30
2016,06,16,12,23,16.30
2016,06,16,12,24,16.30
2016,06,16,12,25,16.30
2016,06,16,12,26,16.30
2016,06,16,12,27,16.30
2016,06,16,12,28,16.40
2016,06,16,12,29,16.30
2016,06,16,12,30,16.40
2016,06,16,12,31,16.40
2016,06,16,12,32,16.40
2016,06,16,12,33,16.40
2016,06,16,12,34,16.50
2016,06,16,12,35,16.60
2016,06,16,12,36,16.70
2016,06,16,12,37,16.90
2016,06,16,12,38,17.00
2016,06,16,12,39,17.10
2016,06,16,12,40,17.10
2016,06,16,12,41,17.10
2016,06,16,12,42,17.00
2016,06,16,12,43,16.90
2016,06,16,12,44,16.90
2016,06,16,12,45,16.90
2016,06,16,12,46,16.90
2016,06,16,12,47,16.90
2016,06,16,12,48,17.00
2016,06,16,12,49,17.10
2016,06,16,12,50,17.20
2016,06,16,12,51,17.30
2016,06,16,12,52,17.30
2016,06,16,12,53,17.40
2016,06,16,12,54,17.40
2016,06,16,12,55,17.40
2016,06,16,12,56,17.20
2016,06,16,12,57,17.10
2016,06,16,12,58,17.00
2016,06,16,12,59,16.90
2016,06,16,13,00,16.90
2016,06,16,13,01,17.00
2016,06,16,13,02,17.00
2016,06,16,13,03,17.00
2016,06,16,13,04,17.10
2016,06,16,13,05,17.30
2016,06,16,13,06,17.30
2016,06,16,13,07,17.40
2016,06,16,13,08,17.50
2016,06,16,13,09,17.40
2016,06,16,13,10,17.30
2016,06,16,13,11,17.20
2016,06,16,13,12,17.10
2016,06,16,13,13,16.90
2016,06,16,13,14,16.90
2016,06,16,13,15,16.90
2016,06,16,13,16,17.00
2016,06,16,13,17,17.10
2016,06,16,13,18,17.20
2016,06,16,13,19,17.20
2016,06,16,13,20,17.30
2016,06,16,13,21,17.20
2016,06,16,13,22,17.10
2016,06,16,13,23,17.10
2016,06,16,13,24,17.00
2016,06,16,13,25,16.80
2016,06,16,13,26,16.80
2016,06,16,13,27,16.70
2016,06,16,13,28,16.50
2016,06,16,13,29,16.40
2016,06,16,13,30,16.30
2016,06,16,13,31,16.30
2016,06,16,13,32,16.40
2016,06,16,13,33,16.40
2016,06,16,13,34,16.50
2016,06,16,13,35,16.60
2016,06,16,13,36,16.60
2016,06,16,13,37,16.70
2016,06,16,13,38,16.70
2016,06,16,13,39,16.70
2016,06,16,13,40,16.80
2016,06,16,13,41,16.80
2016,06,16,13,42,16.80
2016,06,16,13,43,16.80
2016,06,16,13,44,16.70
2016,06,16,13,45,16.70
2016,06,16,13,46,16.80
2016,06,16,13,47,16.80
2016,06,16,13,48,16.90
2016,06,16,13,49,16.90
2016,06,16,13,50,17.00
2016,06,16,13,51,17.10
2016,06,16,13,52,17.20
2016,06,16,13,53,17.20
2016,06,16,13,54,17.30
2016,06,16,13,55,17.30
2016,06,16,13,56,17.20
2016,06,16,13,57,17.20
2016,06,16,13,58,17.20
2016,06,16,13,59,17.10
2016,06,16,14,00,17.10
2016,06,16,14,01,17.00
2016,06,16,14,02,17.10
2016,06,16,14,03,17.00
2016,06,16,14,04,17.10
2016,06,16,14,05,17.10
2016,06,16,14,06,17.20
2016,06,16,14,07,17.20
2016,06,16,14,08,17.20
2016,06,16,14,09,17.20
2016,06,16,14,10,17.20
2016,06,16,14,11,17.20
2016,06,16,14,12,17.30
2016,06,16,14,13,17.30
2016,06,16,14,14,17.30
2016,06,16,14,15,17.30
2016,06,16,14,16,17.30
2016,06,16,14,17,17.20
2016,06,16,14,18,17.20
2016,06,16,14,19,17.30
2016,06,16,14,20,17.30
2016,06,16,14,21,17.40
2016,06,16,14,22,17.30
2016,06,16,14,23,17.30
2016,06,16,14,24,17.30
2016,06,16,14,25,17.30
2016,06,16,14,26,17.30
2016,06,16,14,27,17.30
2016,06,16,14,28,17.40
2016,06,16,14,29,17.50
2016,06,16,14,30,17.60
2016,06,16,14,31,17.60
2016,06,16,14,32,17.60
2016,06,16,14,33,17.60
2016,06,16,14,34,17.70
2016,06,16,14,35,17.70
2016,06,16,14,36,17.70
2016,06,16,14,37,17.60
2016,06,16,14,38,17.60
2016,06,16,14,39,17.60
2016,06,16,14,40,17.60
2016,06,16,14,41,17.50
2016,06,16,14,42,17.50
2016,06,16,14,43,17.50
2016,06,16,14,44,17.40
2016,06,16,14,45,17.30
2016,06,16,14,46,17.30
2016,06,16,14,47,17.40
2016,06,16,14,48,17.50
2016,06,16,14,49,17.60
2016,06,16,14,50,17.60
2016,06,16,14,51,17.70
2016,06,16,14,52,17.70
2016,06,16,14,53,17.70
2016,06,16,14,54,17.70
2016,06,16,14,55,17.70
2016,06,16,14,56,17.70
2016,06,16,14,57,17.70
2016,06,16,14,58,17.70
2016,06,16,14,59,17.70
2016,06,16,15,00,17.70
2016,06,16,15,01,17.80
2016,06,16,15,02,17.80
2016,06,16,15,03,17.80
2016,06,16,15,04,17.80
2016,06,16,15,05,17.80
2016,06,16,15,06,17.70
2016,06,16,15,07,17.70
2016,06,16,15,08,17.60
2016,06,16,15,09,17.60
2016,06,16,15,10,17.70
2016,06,16,15,11,17.70
2016,06,16,15,12,17.70
2016,06,16,15,13,17.70
2016,06,16,15,14,17.70
2016,06,16,15,15,17.80
2016,06,16,15,16,17.70
2016,06,16,15,17,17.60
2016,06,16,15,18,17.50
2016,06,16,15,19,17.40
2016,06,16,15,20,17.20
2016,06,16,15,21,17.10
2016,06,16,15,22,17.20
2016,06,16,15,23,17.20
2016,06,16,15,24,17.30
2016,06,16,15,25,17.40
2016,06,16,15,26,17.50
2016,06,16,15,27,17.60
2016,06,16,15,28,17.80
2016,06,16,15,29,17.90
2016,06,16,15,30,17.90
2016,06,16,15,31,18.00
2016,06,16,15,32,18.10
2016,06,16,15,33,18.10
2016,06,16,15,34,18.00
2016,06,16,15,35,17.90
2016,06,16,15,36,18.00
2016,06,16,15,37,18.00
2016,06,16,15,38,18.00
2016,06,16,15,39,18.00
2016,06,16,15,40,17.90
2016,06,16,15,41,17.80
2016,06,16,15,42,17.80
2016,06,16,15,43,17.80
2016,06,16,15,44,17.70
2016,06,16,15,45,17.70
2016,06,16,15,46,17.80
2016,06,16,15,47,17.70
2016,06,16,15,48,17.70
2016,06,16,15,49,17.60
2016,06,16,15,50,17.60
2016,06,16,15,51,17.60
2016,06,16,15,52,17.50
2016,06,16,15,53,17.40
2016,06,16,15,54,17.50
2016,06,16,15,55,17.60
2016,06,16,15,56,17.60
2016,06,16,15,57,17.60
2016,06,16,15,58,17.60
2016,06,16,15,59,17.50
2016,06,16,16,00,17.40
2016,06,16,16,01,17.40
2016,06,16,16,02,17.40
2016,06,16,16,03,17.50
2016,06,16,16,04,17.60
2016,06,16,16,05,17.70
2016,06,16,16,06,17.70
2016,06,16,16,07,17.80
2016,06,16,16,08,17.80
2016,06,16,16,09,17.80
2016,06,16,16,10,17.80
2016,06,16,16,11,17.80
2016,06,16,16,12,17.90
2016,06,16,16,13,17.80
2016,06,16,16,14,17.70
2016,06,16,16,15,17.70
2016,06,16,16,16,17.60
2016,06,16,16,17,17.60
2016,06,16,16,18,17.70
2016,06,16,16,19,17.80
2016,06,16,16,20,17.80
2016,06,16,16,21,17.80
2016,06,16,16,22,17.80
2016,06,16,16,23,17.80
2016,06,16,16,24,17.70
2016,06,16,16,25,17.80
2016,06,16,16,26,17.80
2016,06,16,16,27,17.80
2016,06,16,16,28,17.80
2016,06,16,16,29,17.80
2016,06,16,16,30,17.80
2016,06,16,16,31,17.70
2016,06,16,16,32,17.60
2016,06,16,16,33,17.70
2016,06,16,16,34,17.70
2016,06,16,16,35,17.70
2016,06,16,16,36,17.70
2016,06,16,16,37,17.60
2016,06,16,16,38,17.60
2016,06,16,16,39,17.60
2016,06,16,16,40,17.60
2016,06,16,16,41,17.60
2016,06,16,16,42,17.60
2016,06,16,16,43,17.60
2016,06,16,16,44,17.60
2016,06,16,16,45,17.60
2016,06,16,16,46,17.60
2016,06,16,16,47,17.60
2016,06,16,16,48,17.60
2016,06,16,16,49,17.70
2016,06,16,16,50,17.80
2016,06,16,16,51,17.90
2016,06,16,16,52,17.90
2016,06,16,16,53,17.90
2016,06,16,16,54,17.90
2016,06,16,16,55,17.90
2016,06,16,16,56,17.80
2016,06,16,16,57,17.80
2016,06,16,16,58,17.80
2016,06,16,16,59,17.80
2016,06,16,17,00,17.80
2016,06,16,17,01,17.70
2016,06,16,17,02,17.60
2016,06,16,17,03,17.60
2016,06,16,17,04,17.60
2016,06,16,17,05,17.70
2016,06,16,17,06,17.80
2016,06,16,17,07,17.70
2016,06,16,17,08,17.70
2016,06,16,17,09,17.70
2016,06,16,17,10,17.50
2016,06,16,17,11,17.40
2016,06,16,17,12,17.40
2016,06,16,17,13,17.40
2016,06,16,17,14,17.50
2016,06,16,17,15,17.60
2016,06,16,17,16,17.60
2016,06,16,17,17,17.50
2016,06,16,17,18,17.40
2016,06,16,17,19,17.30
2016,06,16,17,20,17.30
2016,06,16,17,21,17.40
2016,06,16,17,22,17.40
2016,06,16,17,23,17.30
2016,06,16,17,24,17.20
2016,06,16,17,25,17.20
2016,06,16,17,26,17.40
2016,06,16,17,27,17.50
2016,06,16,17,28,17.60
2016,06,16,17,29,17.60
2016,06,16,17,30,17.70
2016,06,16,17,31,17.70
2016,06,16,17,32,17.60
2016,06,16,17,33,17.60
2016,06,16,17,34,17.70
2016,06,16,17,35,17.80
2016,06,16,17,36,17.90
2016,06,16,17,37,18.00
2016,06,16,17,38,18.00
2016,06,16,17,39,18.10
2016,06,16,17,40,18.10